sat.trackr.live / text

‹ back to catalog

STARLINK-6356

NORAD 57363 · 2023-099AM

PAYLOAD ACTIVE UNKNOWN

§ Identity

Operator
Country
US
Launch date
2023-07-16
Launch site
AFETR
Launch vehicle
Mass (kg)
RCS (m²)

Purposes: comms

External: N2YO · Heavens-Above · Gunter

§ Orbital elements

Epoch: 2026-09-20T06:42:48.296160Z

Period
94.27 min
Inclination
43.0039°
Eccentricity
0.0001384
Mean motion
15.27579163 rev/d
Perigee alt
482.1 km
Apogee alt
484.0 km
Semi-major
6,861.2 km
B*
4.5993e-5
RAAN
222.3682°
Arg perigee
285.2508°
Mean anomaly
74.8191°
Rev number
17,596

§ Raw data

STARLINK-63561 57363U 23099AM  26263.27972565  .00001004  00000+0  45993-4 0  99972 57363  43.0039 222.3682 0001384 285.2508  74.8191 15.27579163175960

JSON: /api/v1/satellites/57363 · /tle

For live sub-satellite position, see the globe view (requires WebGL).

§ Visibility from observer

Set your observer location to see the next 7 days of passes ≥ 10°. The values pass through the URL so the page stays shareable.

No JS? Fill the form by hand. The geolocation button needs JavaScript.